,,Stat6,,Stat2,,Stat8,,Stat9,,Stat10,,Wind1,,Wind1,
time,status,PA1M_AVG,status,PR1M_SUM,status,RH1M_AVG,status,SR1M_AVG,status,TA1M_AVG,status,W1dAve1m,status,W1sAve1m,
2004-03-18, 00:00:01,VALID,918.806,VALID,0,VALID,99.6658,VALID,-0.0169808,VALID,18.5637,VALID,117,VALID,0.735085,
2004-03-18, 00:01:00,VALID,918.811,VALID,0,VALID,99.9413,VALID,0,VALID,18.5932,VALID,123,VALID,0.801491,
2004-03-18, 00:02:00,VALID,918.798,VALID,0,VALID,100,VALID,0,VALID,18.6352,VALID,137,VALID,0.790334,
2004-03-18, 00:03:01,VALID,918.789,VALID,0,VALID,100,VALID,-0.0169808,VALID,18.6742,VALID,145,VALID,0.883878,
2004-03-18, 00:04:00,VALID,918.764,VALID,0,VALID,100,VALID,-0.0339617,VALID,18.7127,VALID,141,VALID,0.783249,
2004-03-18, 00:05:00,VALID,918.761,VALID,0,VALID,100,VALID,-0.0339617,VALID,18.7355,VALID,137,VALID,0.797247,
2004-03-18, 00:06:00,VALID,918.749,VALID,0,VALID,100,VALID,-0.0169808,VALID,18.7355,VALID,139,VALID,0.715116,
2004-03-18, 00:07:01,VALID,918.743,VALID,0,VALID,100,VALID,0,VALID,18.7685,VALID,134,VALID,0.754261,
2004-03-18, 00:08:01,VALID,918.72,VALID,0,VALID,100,VALID,0.0339617,VALID,18.7544,VALID,139,VALID,0.685547,
2004-03-18, 00:09:00,VALID,918.703,VALID,0,VALID,100,VALID,0,VALID,18.7385,VALID,134,VALID,0.738758,
2004-03-18, 00:10:00,VALID,918.685,VALID,0,VALID,100,VALID,0,VALID,18.7261,VALID,134,VALID,0.664435,
2004-03-18, 00:11:01,VALID,918.66,VALID,0,VALID,100,VALID,-0.0169808,VALID,18.7099,VALID,134,VALID,0.507813,
2004-03-18, 00:12:00,VALID,918.617,VALID,0,VALID,100,VALID,0,VALID,18.6933,VALID,134,VALID,0.654576,
2004-03-18, 00:13:01,VALID,918.605,VALID,0,VALID,100,VALID,0,VALID,18.6933,VALID,131,VALID,0.658975,
2004-03-18, 00:14:00,VALID,918.583,VALID,0,VALID,100,VALID,0,VALID,18.6801,VALID,127,VALID,0.670117,
2004-03-18, 00:15:01,VALID,918.581,VALID,0,VALID,100,VALID,-0.0169808,VALID,18.6965,VALID,128,VALID,0.599848,
2004-03-18, 00:16:01,VALID,918.573,VALID,0,VALID,100,VALID,-0.0169808,VALID,18.7064,VALID,130,VALID,0.731827,
2004-03-18, 00:17:00,VALID,918.555,VALID,0,VALID,100,VALID,0,VALID,18.7127,VALID,133,VALID,0.776758,
2004-03-18, 00:18:00,VALID,918.539,VALID,0,VALID,100,VALID,0,VALID,18.703,VALID,135,VALID,0.795387,
2004-03-18, 00:19:00,VALID,918.512,VALID,0,VALID,100,VALID,0,VALID,18.7099,VALID,135,VALID,0.851744,
2004-03-18, 00:20:00,VALID,918.49,VALID,0,VALID,100,VALID,-0.0169808,VALID,18.7097,VALID,135,VALID,0.83505,
2004-03-18, 00:21:00,VALID,918.469,VALID,0,VALID,100,VALID,0,VALID,18.7549,VALID,134,VALID,0.823264,
2004-03-18, 00:22:00,VALID,918.45,VALID,0,VALID,100,VALID,-0.0169808,VALID,18.7772,VALID,133,VALID,0.80625,
2004-03-18, 00:23:01,VALID,918.427,VALID,0,VALID,100,VALID,-0.0169808,VALID,18.7747,VALID,133,VALID,0.791109,
2004-03-18, 00:24:00,VALID,918.405,VALID,0,VALID,100,VALID,-0.0169808,VALID,18.7417,VALID,132,VALID,0.75944,
2004-03-18, 00:25:00,VALID,918.378,VALID,0,VALID,100,VALID,-0.0169808,VALID,18.7161,VALID,131,VALID,0.877841,
2004-03-18, 00:26:00,VALID,918.364,VALID,0,VALID,100,VALID,-0.0339617,VALID,18.6968,VALID,133,VALID,0.952925,
2004-03-18, 00:27:00,VALID,918.344,VALID,0,VALID,100,VALID,-0.0169808,VALID,18.6806,VALID,136,VALID,1.14258,
2004-03-18, 00:28:00,VALID,918.335,VALID,0,VALID,100,VALID,0,VALID,18.7035,VALID,129,VALID,1.21522,
2004-03-18, 00:29:01,VALID,918.341,VALID,0,VALID,100,VALID,0,VALID,18.7194,VALID,129,VALID,1.09884,
2004-03-18, 00:30:00,VALID,918.339,VALID,0,VALID,100,VALID,0,VALID,18.7032,VALID,134,VALID,1.19754,
2004-03-18, 00:31:00,VALID,918.328,VALID,0,VALID,100,VALID,-0.0169808,VALID,18.7194,VALID,136,VALID,1.09453,
2004-03-18, 00:32:00,VALID,918.299,VALID,0,VALID,100,VALID,0,VALID,18.7394,VALID,135,VALID,0.955357,
2004-03-18, 00:33:01,VALID,918.287,VALID,0,VALID,100,VALID,-0.0169808,VALID,18.7062,VALID,133,VALID,1.05895,
2004-03-18, 00:34:00,VALID,918.286,VALID,0,VALID,100,VALID,0,VALID,18.7,VALID,135,VALID,0.979802,
2004-03-18, 00:35:00,VALID,918.283,VALID,0,VALID,100,VALID,-0.0169808,VALID,18.6836,VALID,135,VALID,0.838068,
2004-03-18, 00:36:00,VALID,918.286,VALID,0,VALID,100,VALID,0.0169808,VALID,18.664,VALID,135,VALID,0.845796,
2004-03-18, 00:37:00,VALID,918.29,VALID,0,VALID,100,VALID,-0.0169808,VALID,18.6645,VALID,135,VALID,0.826672,
2004-03-18, 00:38:01,VALID,918.299,VALID,0,VALID,100,VALID,0,VALID,18.6873,VALID,141,VALID,0.823847,
2004-03-18, 00:39:00,VALID,918.294,VALID,0,VALID,100,VALID,-0.0169808,VALID,18.7032,VALID,141,VALID,0.682884,
2004-03-18, 00:40:01,VALID,918.28,VALID,0,VALID,100,VALID,0,VALID,18.7164,VALID,137,VALID,0.815173,
2004-03-18, 00:41:00,VALID,918.264,VALID,0,VALID,100,VALID,-0.0169808,VALID,18.7,VALID,127,VALID,0.986919,
2004-03-18, 00:42:00,VALID,918.234,VALID,0,VALID,100,VALID,0,VALID,18.7131,VALID,127,VALID,0.87609,
2004-03-18, 00:43:00,VALID,918.244,VALID,0,VALID,100,VALID,-0.0679233,VALID,18.7551,VALID,125,VALID,1.00254,
2004-03-18, 00:44:01,VALID,918.23,VALID,0,VALID,100,VALID,-0.0169808,VALID,18.7772,VALID,125,VALID,1.11033,
2004-03-18, 00:45:00,VALID,918.218,VALID,0,VALID,100,VALID,0,VALID,18.7872,VALID,125,VALID,0.786776,
2004-03-18, 00:46:00,VALID,918.207,VALID,0,VALID,100,VALID,-0.0169808,VALID,18.7482,VALID,125,VALID,0.87282,
2004-03-18, 00:47:01,VALID,918.174,VALID,0,VALID,100,VALID,0,VALID,18.7484,VALID,125,VALID,0.693979,
2004-03-18, 00:48:01,VALID,918.154,VALID,0,VALID,100,VALID,-0.0339617,VALID,18.7581,VALID,124,VALID,0.910065,
2004-03-18, 00:49:00,VALID,918.116,VALID,0,VALID,100,VALID,-0.0169808,VALID,18.7641,VALID,124,VALID,1.00316,
2004-03-18, 00:50:00,VALID,918.098,VALID,0,VALID,100,VALID,-0.0169808,VALID,18.8197,VALID,124,VALID,1.09748,
2004-03-18, 00:51:00,VALID,918.072,VALID,0,VALID,100,VALID,-0.0169808,VALID,18.8649,VALID,109,VALID,1.07298,
2004-03-18, 00:52:00,VALID,918.074,VALID,0,VALID,100,VALID,0,VALID,18.8997,VALID,100,VALID,0.74782,
2004-03-18, 00:53:00,VALID,918.065,VALID,0,VALID,100,VALID,0,VALID,18.9163,VALID,108,VALID,0.417387,
2004-03-18, 00:54:00,VALID,918.053,VALID,0,VALID,100,VALID,0,VALID,18.9066,VALID,113,VALID,0.581597,
2004-03-18, 00:55:00,VALID,918.037,VALID,0,VALID,100,VALID,-0.0339617,VALID,18.8939,VALID,115,VALID,0.623757,
2004-03-18, 00:56:00,VALID,918.038,VALID,0,VALID,100,VALID,-0.0169808,VALID,18.8614,VALID,116,VALID,0.799055,
2004-03-18, 00:57:00,VALID,918.029,VALID,0,VALID,100,VALID,-0.0169808,VALID,18.855,VALID,116,VALID,0.93045,
2004-03-18, 00:58:01,VALID,918.031,VALID,0,VALID,100,VALID,0,VALID,18.8513,VALID,116,VALID,0.744093,
2004-03-18, 00:59:01,VALID,918.038,VALID,0,VALID,100,VALID,-0.0169808,VALID,18.8515,VALID,116,VALID,0.409412,
2004-03-18, 01:00:00,VALID,918.015,VALID,0,VALID,99.7752,VALID,-0.0169808,VALID,18.7971,VALID,116,VALID,0.212674,
2004-03-18, 01:01:01,VALID,918.004,VALID,0,VALID,99.2983,VALID,0,VALID,18.6516,VALID,116,VALID,0.365189,
2004-03-18, 01:02:00,VALID,917.995,VALID,0,VALID,99.222,VALID,0,VALID,18.5575,VALID,116,VALID,0.260719,
2004-03-18, 01:03:00,VALID,917.966,VALID,0,VALID,99.1381,VALID,0,VALID,18.5093,VALID,116,VALID,0.414236,
2004-03-18, 01:04:00,VALID,917.957,VALID,0,VALID,99.1508,VALID,-0.0339617,VALID,18.4646,VALID,116,VALID,0.10026,
2004-03-18, 01:05:00,VALID,917.943,VALID,0,VALID,99.2729,VALID,-0.0169808,VALID,18.4318,VALID,116,VALID,0.0114329,
2004-03-18, 01:06:01,VALID,917.933,VALID,0,VALID,99.4827,VALID,-0.0169808,VALID,18.442,VALID,116,VALID,0,
2004-03-18, 01:07:00,VALID,917.922,VALID,0,VALID,99.4191,VALID,-0.0169808,VALID,18.4127,VALID,116,VALID,0,
2004-03-18, 01:08:01,VALID,917.902,VALID,0,VALID,99.6264,VALID,0,VALID,18.4318,VALID,116,VALID,0,
2004-03-18, 01:09:01,VALID,917.879,VALID,0,VALID,99.6798,VALID,-0.0169808,VALID,18.4357,VALID,116,VALID,0,
2004-03-18, 01:10:00,VALID,917.845,VALID,0,VALID,99.7218,VALID,-0.0509425,VALID,18.429,VALID,116,VALID,0,
2004-03-18, 01:11:00,VALID,917.812,VALID,0,VALID,99.7434,VALID,-0.0509425,VALID,18.4258,VALID,116,VALID,0.310369,
2004-03-18, 01:12:01,VALID,917.794,VALID,0,VALID,99.7294,VALID,-0.0679233,VALID,18.3963,VALID,116,VALID,0.393415,
2004-03-18, 01:13:00,VALID,917.766,VALID,0,VALID,99.8032,VALID,-0.0169808,VALID,18.3866,VALID,116,VALID,0.258371,
2004-03-18, 01:14:01,VALID,917.741,VALID,0,VALID,99.6963,VALID,-0.0679233,VALID,18.3546,VALID,116,VALID,0.197856,
2004-03-18, 01:15:00,VALID,917.708,VALID,0,VALID,99.6315,VALID,0,VALID,18.3128,VALID,116,VALID,0.0115234,
2004-03-18, 01:16:01,VALID,917.658,VALID,0,VALID,99.5005,VALID,-0.0169808,VALID,18.2473,VALID,116,VALID,0.424162,
2004-03-18, 01:17:01,VALID,917.629,VALID,0,VALID,99.3886,VALID,0,VALID,18.1639,VALID,116,VALID,0.542668,
2004-03-18, 01:18:00,VALID,917.611,VALID,0,VALID,99.942,VALID,0.0169808,VALID,18.2028,VALID,116,VALID,0.455273,
2004-03-18, 01:19:00,VALID,917.602,VALID,0,VALID,99.9352,VALID,0,VALID,18.2411,VALID,116,VALID,0.00639205,
2004-03-18, 01:20:01,VALID,917.587,VALID,0,VALID,99.8121,VALID,0,VALID,18.2319,VALID,116,VALID,0,
2004-03-18, 01:21:00,VALID,917.554,VALID,0,VALID,99.8413,VALID,0,VALID,18.2093,VALID,116,VALID,0.154726,
2004-03-18, 01:22:01,VALID,917.529,VALID,0,VALID,99.8718,VALID,0.0169808,VALID,18.2128,VALID,116,VALID,0,
2004-03-18, 01:23:00,VALID,917.517,VALID,0,VALID,99.5463,VALID,0.0339617,VALID,18.1353,VALID,116,VALID,0.154119,
2004-03-18, 01:24:01,VALID,917.516,VALID,0,VALID,99.4446,VALID,0,VALID,18.0544,VALID,116,VALID,0.219512,
2004-03-18, 01:25:00,VALID,917.498,VALID,0,VALID,99.5781,VALID,0.0169808,VALID,18.0354,VALID,116,VALID,0.331143,
2004-03-18, 01:26:01,VALID,917.468,VALID,0,VALID,99.7434,VALID,0,VALID,18.0318,VALID,116,VALID,0.501359,
2004-03-18, 01:27:01,VALID,917.441,VALID,0,VALID,99.9814,VALID,0,VALID,18.0903,VALID,86,VALID,0.607599,
2004-03-18, 01:28:01,VALID,917.423,VALID,0,VALID,100,VALID,0,VALID,18.219,VALID,85,VALID,0.492551,
2004-03-18, 01:29:01,VALID,917.401,VALID,0,VALID,100,VALID,0,VALID,18.2095,VALID,85,VALID,0.313072,
2004-03-18, 01:30:01,VALID,917.383,VALID,0,VALID,99.998,VALID,-0.0169808,VALID,18.1586,VALID,102,VALID,0.675781,
2004-03-18, 01:31:01,VALID,917.356,VALID,0,VALID,100,VALID,-0.0169808,VALID,18.1323,VALID,125,VALID,0.916493,
2004-03-18, 01:32:01,VALID,917.355,VALID,0,VALID,100,VALID,-0.0169808,VALID,18.1708,VALID,123,VALID,1.10621,
2004-03-18, 01:33:01,VALID,917.35,VALID,0,VALID,100,VALID,0,VALID,18.2388,VALID,130,VALID,1.24609,
2004-03-18, 01:34:01,VALID,917.365,VALID,0,VALID,100,VALID,0,VALID,18.281,VALID,132,VALID,0.990327,
2004-03-18, 01:35:01,VALID,917.362,VALID,0,VALID,100,VALID,0.0169808,VALID,18.3163,VALID,131,VALID,0.885603,
2004-03-18, 01:36:01,VALID,917.365,VALID,0,VALID,100,VALID,0.0169808,VALID,18.3195,VALID,131,VALID,0.792151,
2004-03-18, 01:37:01,VALID,917.344,VALID,0,VALID,100,VALID,0,VALID,18.358,VALID,130,VALID,0.690848,
2004-03-18, 01:38:01,VALID,917.34,VALID,0,VALID,100,VALID,0,VALID,18.3834,VALID,109,VALID,0.726935,
2004-03-18, 01:39:01,VALID,917.333,VALID,0,VALID,100,VALID,0,VALID,18.332,VALID,109,VALID,0.79415,
2004-03-18, 01:40:01,VALID,917.339,VALID,0,VALID,100,VALID,0,VALID,18.3031,VALID,114,VALID,0.831364,
2004-03-18, 01:41:01,VALID,917.331,VALID,0,VALID,100,VALID,0,VALID,18.326,VALID,114,VALID,0.843217,
2004-03-18, 01:42:01,VALID,917.315,VALID,0,VALID,100,VALID,-0.0169808,VALID,18.3292,VALID,113,VALID,0.834223,
2004-03-18, 01:43:01,VALID,917.29,VALID,0,VALID,100,VALID,0,VALID,18.2674,VALID,96,VALID,0.421303,
2004-03-18, 01:44:01,VALID,917.286,VALID,0,VALID,99.7536,VALID,0,VALID,18.1357,VALID,79,VALID,0.494855,
2004-03-18, 01:45:01,VALID,917.284,VALID,0,VALID,99.7866,VALID,-0.0169808,VALID,18.0574,VALID,80,VALID,0.357515,
2004-03-18, 01:46:01,VALID,917.27,VALID,0,VALID,99.9532,VALID,0,VALID,18.0583,VALID,80,VALID,0.151042,
2004-03-18, 01:47:01,VALID,917.253,VALID,0,VALID,99.988,VALID,-0.0169808,VALID,18.0746,VALID,80,VALID,0.279433,
2004-03-18, 01:48:01,VALID,917.233,VALID,0,VALID,99.9036,VALID,-0.0169808,VALID,18.0518,VALID,80,VALID,0.354167,
2004-03-18, 01:49:01,VALID,917.232,VALID,0,VALID,99.9677,VALID,-0.0169808,VALID,18.0389,VALID,80,VALID,0.396763,
2004-03-18, 01:50:01,VALID,917.235,VALID,0,VALID,99.9776,VALID,-0.0169808,VALID,18.0324,VALID,80,VALID,0.0831473,
2004-03-18, 01:51:01,VALID,917.237,VALID,0,VALID,99.826,VALID,-0.0169808,VALID,17.9812,VALID,80,VALID,0,
2004-03-18, 01:52:01,VALID,917.218,VALID,0,VALID,99.751,VALID,-0.0339617,VALID,17.9291,VALID,80,VALID,0,
2004-03-18, 01:53:00,VALID,917.177,VALID,0,VALID,99.8718,VALID,0,VALID,17.9356,VALID,80,VALID,0,
2004-03-18, 01:54:00,VALID,917.152,VALID,0,VALID,99.9842,VALID,0,VALID,17.978,VALID,80,VALID,0,
2004-03-18, 01:55:00,VALID,917.133,VALID,0,VALID,99.836,VALID,0,VALID,17.9517,VALID,78,VALID,0.419588,
2004-03-18, 01:56:00,VALID,917.13,VALID,0,VALID,99.8019,VALID,0,VALID,17.8971,VALID,60,VALID,0.568216,
2004-03-18, 01:57:00,VALID,917.142,VALID,0,VALID,99.9873,VALID,0,VALID,17.9229,VALID,55,VALID,0.561592,
2004-03-18, 01:58:00,VALID,917.13,VALID,0,VALID,99.9929,VALID,0,VALID,17.9098,VALID,55,VALID,0.425347,
2004-03-18, 01:59:00,VALID,917.115,VALID,0,VALID,100,VALID,0,VALID,17.9261,VALID,55,VALID,0.303163,
2004-03-18, 02:00:00,VALID,917.107,VALID,0,VALID,100,VALID,-0.0169808,VALID,17.946,VALID,55,VALID,0.162946,
2004-03-18, 02:01:00,VALID,917.091,VALID,0,VALID,100,VALID,0,VALID,17.9974,VALID,55,VALID,0.240854,
2004-03-18, 02:02:00,VALID,917.074,VALID,0,VALID,100,VALID,-0.0169808,VALID,17.9942,VALID,55,VALID,0.402716,
2004-03-18, 02:03:00,VALID,917.043,VALID,0,VALID,99.9084,VALID,0,VALID,17.9003,VALID,55,VALID,0.557958,
2004-03-18, 02:04:00,VALID,917.029,VALID,0,VALID,99.9914,VALID,-0.0169808,VALID,17.9003,VALID,55,VALID,0.589749,
2004-03-18, 02:05:00,VALID,917.025,VALID,0,VALID,100,VALID,-0.0169808,VALID,18.0068,VALID,56,VALID,0.447493,
2004-03-18, 02:06:00,VALID,917.029,VALID,0,VALID,100,VALID,-0.0339617,VALID,18.1104,VALID,56,VALID,0.0917515,
2004-03-18, 02:07:00,VALID,917,VALID,0,VALID,100,VALID,0,VALID,18.1456,VALID,56,VALID,0,
2004-03-18, 02:08:00,VALID,916.981,VALID,0,VALID,100,VALID,-0.0169808,VALID,18.1168,VALID,56,VALID,0,
2004-03-18, 02:09:00,VALID,916.95,VALID,0,VALID,100,VALID,0,VALID,18.0781,VALID,56,VALID,0,
2004-03-18, 02:10:00,VALID,916.933,VALID,0,VALID,100,VALID,-0.0679233,VALID,18.052,VALID,56,VALID,0.0814986,
2004-03-18, 02:11:00,VALID,916.915,VALID,0,VALID,99.9888,VALID,-0.0169808,VALID,17.9845,VALID,56,VALID,0.392475,
2004-03-18, 02:12:00,VALID,916.888,VALID,0,VALID,99.8006,VALID,0,VALID,17.8879,VALID,56,VALID,0.618118,
2004-03-18, 02:13:00,VALID,916.885,VALID,0,VALID,100,VALID,0,VALID,17.907,VALID,56,VALID,0.690341,
2004-03-18, 02:14:00,VALID,916.87,VALID,0,VALID,100,VALID,0,VALID,18.0294,VALID,75,VALID,0.618608,
2004-03-18, 02:15:00,VALID,916.854,VALID,0,VALID,100,VALID,-0.0169808,VALID,18.0684,VALID,90,VALID,0.700335,
2004-03-18, 02:16:00,VALID,916.83,VALID,0,VALID,100,VALID,-0.0339617,VALID,18.0103,VALID,101,VALID,0.669271,
2004-03-18, 02:17:00,VALID,916.801,VALID,0,VALID,99.91,VALID,-0.0339617,VALID,17.9457,VALID,104,VALID,0.427144,
2004-03-18, 02:18:00,VALID,916.789,VALID,0,VALID,99.7421,VALID,-0.0339617,VALID,17.8844,VALID,104,VALID,0.387074,
2004-03-18, 02:19:00,VALID,916.788,VALID,0,VALID,99.6455,VALID,-0.0339617,VALID,17.8263,VALID,112,VALID,0.563244,
2004-03-18, 02:20:00,VALID,916.766,VALID,0,VALID,99.8487,VALID,0,VALID,17.7973,VALID,131,VALID,0.9375,
2004-03-18, 02:21:00,VALID,916.761,VALID,0,VALID,100,VALID,0,VALID,17.8332,VALID,128,VALID,1.28773,
2004-03-18, 02:22:00,VALID,916.762,VALID,0,VALID,100,VALID,0,VALID,17.8906,VALID,128,VALID,1.15004,
2004-03-18, 02:23:00,VALID,916.773,VALID,0,VALID,100,VALID,-0.0169808,VALID,17.9195,VALID,142,VALID,0.807413,
2004-03-18, 02:24:00,VALID,916.776,VALID,0,VALID,100,VALID,-0.0169808,VALID,17.9522,VALID,148,VALID,0.68314,
2004-03-18, 02:25:00,VALID,916.768,VALID,0,VALID,100,VALID,0,VALID,17.9681,VALID,142,VALID,1.10795,
2004-03-18, 02:26:00,VALID,916.755,VALID,0,VALID,100,VALID,-0.0169808,VALID,18.0264,VALID,135,VALID,1.03815,
2004-03-18, 02:27:00,VALID,916.754,VALID,0,VALID,100,VALID,0,VALID,18.049,VALID,134,VALID,0.925781,
2004-03-18, 02:28:00,VALID,916.748,VALID,0,VALID,100,VALID,-0.0169808,VALID,18.0421,VALID,122,VALID,0.636719,
2004-03-18, 02:29:00,VALID,916.773,VALID,0,VALID,100,VALID,-0.0169808,VALID,17.9972,VALID,116,VALID,0.526042,
2004-03-18, 02:30:00,VALID,916.78,VALID,0,VALID,100,VALID,0,VALID,17.9679,VALID,118,VALID,0.620236,
2004-03-18, 02:31:00,VALID,916.787,VALID,0,VALID,100,VALID,0,VALID,17.9713,VALID,133,VALID,0.890811,
2004-03-18, 02:32:00,VALID,916.791,VALID,0,VALID,100,VALID,-0.0169808,VALID,18.0294,VALID,116,VALID,0.655523,
2004-03-18, 02:33:00,VALID,916.791,VALID,0,VALID,100,VALID,0,VALID,18.02,VALID,105,VALID,0.558036,
2004-03-18, 02:34:00,VALID,916.785,VALID,0,VALID,100,VALID,0,VALID,17.9778,VALID,105,VALID,0.321911,
2004-03-18, 02:35:00,VALID,916.78,VALID,0,VALID,100,VALID,0,VALID,17.9815,VALID,105,VALID,0.331287,
2004-03-18, 02:36:00,VALID,916.774,VALID,0,VALID,100,VALID,-0.0169808,VALID,17.9875,VALID,105,VALID,0.326982,
2004-03-18, 02:37:00,VALID,916.78,VALID,0,VALID,100,VALID,0,VALID,17.9875,VALID,105,VALID,0.299964,
2004-03-18, 02:38:00,VALID,916.791,VALID,0,VALID,100,VALID,-0.0169808,VALID,17.9845,VALID,105,VALID,0.223214,
2004-03-18, 02:39:00,VALID,916.789,VALID,0,VALID,100,VALID,0,VALID,18.0038,VALID,105,VALID,0.475761,
2004-03-18, 02:40:00,VALID,916.769,VALID,0,VALID,100,VALID,0,VALID,18.026,VALID,105,VALID,0.473845,
2004-03-18, 02:41:00,VALID,916.751,VALID,0,VALID,100,VALID,0,VALID,18.0553,VALID,105,VALID,0.597565,
2004-03-18, 02:42:00,VALID,916.733,VALID,0,VALID,100,VALID,-0.0169808,VALID,18.0329,VALID,105,VALID,0.430432,
2004-03-18, 02:43:00,VALID,916.728,VALID,0,VALID,100,VALID,0,VALID,17.9421,VALID,105,VALID,0.211787,
2004-03-18, 02:44:00,VALID,916.731,VALID,0,VALID,100,VALID,0,VALID,17.8906,VALID,105,VALID,0.172602,
2004-03-18, 02:45:00,VALID,916.741,VALID,0,VALID,99.9964,VALID,0.0169808,VALID,17.8265,VALID,105,VALID,0.0869565,
2004-03-18, 02:46:00,VALID,916.761,VALID,0,VALID,99.9367,VALID,0,VALID,17.7355,VALID,105,VALID,0,
2004-03-18, 02:47:00,VALID,916.759,VALID,0,VALID,99.8922,VALID,0,VALID,17.6873,VALID,105,VALID,0,
2004-03-18, 02:48:00,VALID,916.771,VALID,0,VALID,99.999,VALID,0,VALID,17.6967,VALID,105,VALID,0,
2004-03-18, 02:49:00,VALID,916.755,VALID,0,VALID,100,VALID,-0.0339617,VALID,17.7555,VALID,105,VALID,0,
2004-03-18, 02:50:00,VALID,916.764,VALID,0,VALID,99.9964,VALID,-0.0169808,VALID,17.7424,VALID,105,VALID,0,
2004-03-18, 02:51:00,VALID,916.793,VALID,0,VALID,100,VALID,0,VALID,17.7101,VALID,105,VALID,0,
2004-03-18, 02:52:00,VALID,916.823,VALID,0,VALID,100,VALID,0,VALID,17.7069,VALID,105,VALID,0.214931,
2004-03-18, 02:53:00,VALID,916.832,VALID,0,VALID,100,VALID,0.0169808,VALID,17.7232,VALID,116,VALID,0.328852,
2004-03-18, 02:54:00,VALID,916.831,VALID,0,VALID,100,VALID,0,VALID,17.7454,VALID,117,VALID,0.313616,
2004-03-18, 02:55:00,VALID,916.804,VALID,0,VALID,100,VALID,0.0169808,VALID,17.7749,VALID,117,VALID,0.29139,
2004-03-18, 02:56:00,VALID,916.806,VALID,0,VALID,100,VALID,0,VALID,17.7648,VALID,115,VALID,0.532031,
2004-03-18, 02:57:00,VALID,916.797,VALID,0,VALID,100,VALID,-0.0339617,VALID,17.7394,VALID,114,VALID,0.512386,
2004-03-18, 02:58:00,VALID,916.78,VALID,0,VALID,100,VALID,0,VALID,17.7841,VALID,114,VALID,0.393229,
2004-03-18, 02:59:00,VALID,916.761,VALID,0,VALID,100,VALID,0.0339617,VALID,17.8132,VALID,115,VALID,0.410511,
2004-03-18, 03:00:00,VALID,916.744,VALID,0,VALID,100,VALID,0.0169808,VALID,17.7846,VALID,115,VALID,0.366406,
2004-03-18, 03:01:00,VALID,916.722,VALID,0,VALID,100,VALID,0,VALID,17.8069,VALID,115,VALID,0.250586,
2004-03-18, 03:02:00,VALID,916.707,VALID,0,VALID,100,VALID,-0.0169808,VALID,17.8392,VALID,115,VALID,0.0996094,
2004-03-18, 03:03:00,VALID,916.707,VALID,0,VALID,100,VALID,-0.0169808,VALID,17.8104,VALID,115,VALID,0.0046875,
2004-03-18, 03:04:00,VALID,916.711,VALID,0,VALID,99.984,VALID,-0.0169808,VALID,17.6845,VALID,115,VALID,0,
2004-03-18, 03:05:00,VALID,916.735,VALID,0,VALID,99.9084,VALID,-0.0169808,VALID,17.5905,VALID,115,VALID,0.244097,
2004-03-18, 03:06:00,VALID,916.736,VALID,0,VALID,100,VALID,-0.0169808,VALID,17.6006,VALID,124,VALID,0.665334,
2004-03-18, 03:07:00,VALID,916.724,VALID,0,VALID,100,VALID,0.0169808,VALID,17.6421,VALID,139,VALID,0.803052,
2004-03-18, 03:08:00,VALID,916.699,VALID,0,VALID,100,VALID,0,VALID,17.7069,VALID,125,VALID,0.901278,
2004-03-18, 03:09:00,VALID,916.675,VALID,0,VALID,100,VALID,0,VALID,17.7454,VALID,123,VALID,0.645419,
2004-03-18, 03:10:00,VALID,916.685,VALID,0,VALID,100,VALID,-0.0169808,VALID,17.7424,VALID,123,VALID,0.15997,
2004-03-18, 03:11:00,VALID,916.69,VALID,0,VALID,100,VALID,0,VALID,17.726,VALID,123,VALID,0.0519531,
2004-03-18, 03:12:00,VALID,916.687,VALID,0,VALID,100,VALID,0,VALID,17.6937,VALID,123,VALID,0.184524,
2004-03-18, 03:13:00,VALID,916.684,VALID,0,VALID,100,VALID,-0.0339617,VALID,17.6552,VALID,123,VALID,0.274164,
2004-03-18, 03:14:00,VALID,916.663,VALID,0,VALID,100,VALID,0,VALID,17.6845,VALID,123,VALID,0.344866,
2004-03-18, 03:15:00,VALID,916.637,VALID,0,VALID,100,VALID,-0.0339617,VALID,17.6838,VALID,123,VALID,0.551711,
2004-03-18, 03:16:00,VALID,916.615,VALID,0,VALID,100,VALID,0,VALID,17.6486,VALID,114,VALID,0.775799,
2004-03-18, 03:17:00,VALID,916.571,VALID,0,VALID,100,VALID,0,VALID,17.7094,VALID,125,VALID,1.0646,
2004-03-18, 03:18:00,VALID,916.56,VALID,0,VALID,100,VALID,-0.0339617,VALID,17.8298,VALID,128,VALID,1.09821,
2004-03-18, 03:19:00,VALID,916.569,VALID,0,VALID,100,VALID,-0.0169808,VALID,17.8844,VALID,131,VALID,0.909307,
2004-03-18, 03:20:00,VALID,916.561,VALID,0,VALID,100,VALID,-0.0169808,VALID,17.9038,VALID,131,VALID,0.850472,
2004-03-18, 03:21:00,VALID,916.563,VALID,0,VALID,100,VALID,-0.0509425,VALID,17.9462,VALID,130,VALID,0.750558,
2004-03-18, 03:22:00,VALID,916.569,VALID,0,VALID,100,VALID,-0.0339617,VALID,17.9132,VALID,125,VALID,0.59809,
2004-03-18, 03:23:00,VALID,916.554,VALID,0,VALID,100,VALID,-0.0509425,VALID,17.7686,VALID,121,VALID,0.424183,
2004-03-18, 03:24:00,VALID,916.53,VALID,0,VALID,100,VALID,-0.0169808,VALID,17.6912,VALID,83,VALID,0.863467,
2004-03-18, 03:25:00,VALID,916.53,VALID,0,VALID,100,VALID,0,VALID,17.8035,VALID,91,VALID,0.687322,
2004-03-18, 03:26:00,VALID,916.55,VALID,0,VALID,100,VALID,0,VALID,17.862,VALID,92,VALID,0.463368,
2004-03-18, 03:27:00,VALID,916.584,VALID,0,VALID,100,VALID,0,VALID,17.9008,VALID,92,VALID,0.411285,
2004-03-18, 03:28:00,VALID,916.595,VALID,0,VALID,100,VALID,0,VALID,17.9748,VALID,92,VALID,0.501635,
2004-03-18, 03:29:00,VALID,916.586,VALID,0,VALID,100,VALID,-0.0169808,VALID,18.0267,VALID,92,VALID,0.353472,
2004-03-18, 03:30:00,VALID,916.598,VALID,0,VALID,100,VALID,0,VALID,18.0198,VALID,92,VALID,0.223837,
2004-03-18, 03:31:00,VALID,916.605,VALID,0,VALID,100,VALID,0,VALID,17.9453,VALID,92,VALID,0.101376,
2004-03-18, 03:32:00,VALID,916.604,VALID,0,VALID,100,VALID,0,VALID,17.9162,VALID,92,VALID,0.534226,
2004-03-18, 03:33:00,VALID,916.603,VALID,0,VALID,100,VALID,0,VALID,17.9909,VALID,89,VALID,0.731286,
2004-03-18, 03:34:00,VALID,916.622,VALID,0,VALID,99.9268,VALID,0,VALID,17.9944,VALID,75,VALID,0.44215,
2004-03-18, 03:35:00,VALID,916.629,VALID,0,VALID,99.3721,VALID,0,VALID,17.8812,VALID,75,VALID,0.196456,
2004-03-18, 03:36:00,VALID,916.633,VALID,0,VALID,99.1165,VALID,-0.0169808,VALID,17.8069,VALID,75,VALID,0.122456,
2004-03-18, 03:37:00,VALID,916.631,VALID,0,VALID,98.9664,VALID,0,VALID,17.7714,VALID,125,VALID,0.830357,
2004-03-18, 03:38:00,VALID,916.622,VALID,0,VALID,99.3784,VALID,-0.0509425,VALID,17.7912,VALID,136,VALID,1.25781,
2004-03-18, 03:39:00,VALID,916.57,VALID,0,VALID,99.704,VALID,-0.0509425,VALID,17.8524,VALID,136,VALID,1.20903,
2004-03-18, 03:40:00,VALID,916.553,VALID,0,VALID,99.7625,VALID,-0.0169808,VALID,17.8909,VALID,129,VALID,0.927973,
2004-03-18, 03:41:00,VALID,916.559,VALID,0,VALID,99.7803,VALID,-0.0169808,VALID,17.9261,VALID,77,VALID,0.390816,
2004-03-18, 03:42:00,VALID,916.557,VALID,0,VALID,99.5361,VALID,0.0169808,VALID,17.9162,VALID,33,VALID,0.256177,
2004-03-18, 03:43:00,VALID,916.551,VALID,0,VALID,99.5616,VALID,0,VALID,17.9453,VALID,33,VALID,0.245536,
2004-03-18, 03:44:00,VALID,916.553,VALID,0,VALID,98.9601,VALID,0,VALID,17.8805,VALID,50,VALID,0.320713,